XM-5

Last updated on Tue Sep 22 2026 00:03:12 GMT+0000 (Coordinated Universal Time)

1 37185U 10053A 26264.50524456 -.00000027 00000+0 00000+0 0 9992 2 37185 0.0744 270.9584 0000536 208.7604 307.3783 1.00270534 58441
UTC large
Height (km)
Speed (km/s)
/
Latitude / Longitude
Inclination (degrees)
Orbital Period (minutes)
Azimuth
Elevation
Range (km)
Doppler Factor

Next 0 passes for location: London (51.5072 / 0.1276)

No passes found over London.
XM-5